User: anonymous   Login
Location: Unspecified
(0.0000°N, 0.0000°E)
Time: 07:09:43
(UTC+00:00)
Language:

ESTCUBE 1 - Orbit

View from above orbital plane
View from above orbital plane
View from above satellite
View from above satellite

Ground track
Ground track

The orbit data is extracted from the following two-line orbital elements,

1 39161U 13021C   17178.73577657 +.00000153 +00000-0 +32429-4 0  9991
2 39161 098.0281 264.6012 0010979 107.3839 252.8575 14.71901915222309
Epoch (UTC): 27 June 2017 17:39:31
Eccentricity: 0.0010979
inclination: 98.0281°
perigee height: 647 km
apogee height: 663 km
right ascension of ascending node: 264.6012°
argument of perigee: 107.3839°
revolutions per day: 14.71901915
mean anomaly at epoch: 252.8575°
orbit number at epoch: 22230

The dashed part of the orbit path shows where the satellite is in the earth's shadow,  

DLR